Terminal Aerodrome Forecast
Issued by NWS

Home | Current Version | Previous Version | Text Only | Print | Product List | Glossary On
Versions: 1 2 3 4 5 6 7 8 9 10 11 12 13 14 15 16 17 18 19 20 21 22 23 24 25 26 27 28 29 30 31 32 33 34 35 36 37 38 39 40 41 42 43 44 45 46 47 48 49 50
000
FTUS44 KHGX 271007
TAFSGR
TAFSGR
TAF AMD
KSGR 271007Z 2710/2806 14006KT P6SM VCSH SCT015 BKN070
      TEMPO 2710/2713 VRB15G25KT 4SM TSRA BKN015CB
     FM271500 14008KT P6SM SCT025 BKN035
     FM271800 15008KT P6SM VCSH BKN035
     FM280200 14005KT P6SM SCT025=

USA.gov is the U.S. government's official web portal to all federal, state and local government web resources and services.